User: anonymous   Login
Location: Unspecified
(0.0000°N, 0.0000°E)
Time: 19:12:14
(UTC+00:00)
Language:

STARLINK-36263 - Orbit

View from above orbital plane
View from above orbital plane
View from above satellite
View from above satellite

Ground track
Ground track

The orbit is defined by the following mean orbital elements,

1 67202U          26145.26957031 +.00000000 +00000-0 +15449-3 0 00007
2 67202  70.0019 341.4510 0002796 267.1267  92.9572 14.98333774    02
Epoch (UTC): 25 May 2026 06:28:10
Eccentricity: 0.0002796
inclination: 70.0019°
perigee height: 570 km
apogee height: 574 km
right ascension of ascending node: 341.4510°
argument of perigee: 267.1267°
revolutions per day: 14.98333774
mean anomaly at epoch: 92.9572°

The dashed part of the orbit path shows where the satellite is in the earth's shadow,  

DLR